TimeCST,TemperatureF,Dew PointF,Humidity,Sea Level PressureIn,VisibilityMPH,Wind Direction,Wind SpeedMPH,Gust SpeedMPH,PrecipitationIn,Events,Conditions,WindDirDegrees,DateUTC
12:15 AM,30.2,23.0,75,29.94,10.0,SW,3.5,-,N/A,,Clear,230,2013-02-17 06:15:00
12:35 AM,23.0,19.4,86,29.94,10.0,SW,3.5,-,N/A,,Clear,220,2013-02-17 06:35:00
12:55 AM,26.6,23.0,86,29.93,10.0,SW,4.6,-,N/A,,Clear,220,2013-02-17 06:55:00
1:15 AM,30.2,24.8,80,29.93,10.0,SSW,5.8,-,N/A,,Clear,210,2013-02-17 07:15:00
1:35 AM,30.2,23.0,75,29.93,10.0,SW,5.8,-,N/A,,Clear,220,2013-02-17 07:35:00
1:55 AM,28.4,24.8,86,29.92,10.0,SSW,6.9,-,N/A,,Clear,210,2013-02-17 07:55:00
2:15 AM,30.2,23.0,75,29.92,10.0,SSW,4.6,-,N/A,,Clear,210,2013-02-17 08:15:00
2:35 AM,26.6,19.4,74,29.92,10.0,SSW,4.6,-,N/A,,Clear,210,2013-02-17 08:35:00
2:55 AM,26.6,24.8,93,29.91,10.0,SW,3.5,-,N/A,,Clear,220,2013-02-17 08:55:00
3:15 AM,26.6,21.2,80,29.90,10.0,SSW,3.5,-,N/A,,Clear,200,2013-02-17 09:15:00
3:35 AM,26.6,23.0,86,29.89,10.0,Calm,Calm,-,N/A,,Clear,0,2013-02-17 09:35:00
3:55 AM,24.8,19.4,80,29.88,10.0,Calm,Calm,-,N/A,,Clear,0,2013-02-17 09:55:00
4:15 AM,24.8,21.2,86,29.87,10.0,Calm,Calm,-,N/A,,Clear,0,2013-02-17 10:15:00
4:35 AM,23.0,19.4,86,29.86,10.0,SSW,4.6,-,N/A,,Clear,200,2013-02-17 10:35:00
4:55 AM,24.8,21.2,86,29.86,10.0,SSW,9.2,-,N/A,,Clear,200,2013-02-17 10:55:00
5:15 AM,24.8,21.2,86,29.86,10.0,SSW,6.9,-,N/A,,Clear,210,2013-02-17 11:15:00
5:35 AM,24.8,21.2,86,29.85,10.0,SSW,3.5,-,N/A,,Clear,210,2013-02-17 11:35:00
5:55 AM,24.8,21.2,86,29.84,10.0,SW,5.8,-,N/A,,Clear,220,2013-02-17 11:55:00
6:15 AM,26.6,21.2,80,29.85,10.0,SW,9.2,-,N/A,,Clear,230,2013-02-17 12:15:00
6:35 AM,28.4,21.2,74,29.84,10.0,SW,8.1,-,N/A,,Clear,230,2013-02-17 12:35:00
6:55 AM,26.6,21.2,80,29.83,10.0,SW,3.5,-,N/A,,Clear,230,2013-02-17 12:55:00
7:15 AM,26.6,21.2,80,29.83,10.0,WSW,8.1,-,N/A,,Clear,250,2013-02-17 13:15:00
7:35 AM,26.6,21.2,80,29.83,10.0,West,3.5,-,N/A,,Clear,280,2013-02-17 13:35:00
7:55 AM,26.6,21.2,80,29.82,10.0,Calm,Calm,-,N/A,,Clear,0,2013-02-17 13:55:00
8:15 AM,26.6,23.0,86,29.82,10.0,Calm,Calm,-,N/A,,Clear,0,2013-02-17 14:15:00
8:35 AM,28.4,24.8,86,29.81,10.0,Calm,Calm,-,N/A,,Clear,0,2013-02-17 14:35:00
8:55 AM,33.8,26.6,75,29.80,10.0,Calm,Calm,-,N/A,,Clear,0,2013-02-17 14:55:00
9:15 AM,35.6,26.6,70,29.80,10.0,SW,3.5,-,N/A,,Clear,230,2013-02-17 15:15:00
9:35 AM,37.4,28.4,70,29.79,10.0,SSW,5.8,-,N/A,,Clear,200,2013-02-17 15:35:00
9:55 AM,41.0,28.4,61,29.79,10.0,South,8.1,-,N/A,,Clear,190,2013-02-17 15:55:00
10:15 AM,42.8,28.4,57,29.78,10.0,SSW,8.1,-,N/A,,Clear,210,2013-02-17 16:15:00
10:35 AM,44.6,28.4,53,29.77,10.0,SSW,9.2,-,N/A,,Clear,210,2013-02-17 16:35:00
10:55 AM,46.4,28.4,50,29.77,10.0,SW,11.5,-,N/A,,Clear,220,2013-02-17 16:55:00
11:15 AM,50.0,26.6,40,29.76,10.0,SSW,12.7,-,N/A,,Clear,210,2013-02-17 17:15:00
11:35 AM,53.6,26.6,35,29.74,10.0,SW,15.0,19.6,N/A,,Clear,220,2013-02-17 17:35:00
11:55 AM,57.2,24.8,29,29.73,10.0,South,15.0,-,N/A,,Clear,190,2013-02-17 17:55:00
12:15 PM,59.0,24.8,27,29.71,10.0,SSW,17.3,20.7,N/A,,Clear,200,2013-02-17 18:15:00
12:35 PM,60.8,24.8,25,29.69,10.0,SSW,20.7,25.3,N/A,,Clear,210,2013-02-17 18:35:00
12:55 PM,62.6,23.0,22,29.68,10.0,SSW,20.7,-,N/A,,Clear,210,2013-02-17 18:55:00
1:15 PM,62.6,23.0,22,29.67,10.0,SSW,17.3,23.0,N/A,,Clear,210,2013-02-17 19:15:00
1:35 PM,60.8,23.0,23,29.66,10.0,SSW,19.6,25.3,N/A,,Clear,200,2013-02-17 19:35:00
1:55 PM,62.6,23.0,22,29.65,10.0,SSW,19.6,25.3,N/A,,Clear,200,2013-02-17 19:55:00
2:15 PM,62.6,21.2,20,29.63,10.0,SSW,21.9,26.5,N/A,,Clear,200,2013-02-17 20:15:00
2:35 PM,64.4,23.0,21,29.62,10.0,SSW,19.6,23.0,N/A,,Clear,200,2013-02-17 20:35:00
2:55 PM,62.6,21.2,20,29.60,10.0,South,24.2,-,N/A,,Clear,190,2013-02-17 20:55:00
3:15 PM,62.6,21.2,20,29.60,10.0,SSW,20.7,25.3,N/A,,Clear,200,2013-02-17 21:15:00
3:35 PM,62.6,21.2,20,29.59,10.0,South,18.4,21.9,N/A,,Clear,190,2013-02-17 21:35:00
3:55 PM,64.4,19.4,18,29.58,10.0,SSW,19.6,-,N/A,,Clear,200,2013-02-17 21:55:00
4:15 PM,62.6,19.4,19,29.58,10.0,SSW,17.3,-,N/A,,Clear,200,2013-02-17 22:15:00
4:35 PM,62.6,19.4,19,29.57,10.0,SSW,13.8,-,N/A,,Clear,200,2013-02-17 22:35:00
4:55 PM,60.8,21.2,22,29.56,10.0,South,10.4,-,N/A,,Clear,190,2013-02-17 22:55:00
5:15 PM,59.0,19.4,22,29.55,10.0,South,11.5,-,N/A,,Clear,180,2013-02-17 23:15:00
5:35 PM,55.4,19.4,25,29.55,10.0,South,9.2,-,N/A,,Clear,180,2013-02-17 23:35:00
5:55 PM,53.6,21.2,28,29.55,10.0,South,5.8,-,N/A,,Clear,190,2013-02-17 23:55:00
6:15 PM,53.6,19.4,26,29.55,10.0,South,3.5,-,N/A,,Clear,190,2013-02-18 00:15:00
6:35 PM,48.2,19.4,32,29.55,10.0,Calm,Calm,-,N/A,,Clear,0,2013-02-18 00:35:00
6:55 PM,46.4,21.2,37,29.55,10.0,NNE,3.5,-,N/A,,Clear,20,2013-02-18 00:55:00
7:15 PM,46.4,19.4,34,29.55,10.0,Calm,Calm,-,N/A,,Clear,0,2013-02-18 01:15:00
7:35 PM,42.8,19.4,39,29.55,10.0,North,-9999.0,-,N/A,,Clear,0,2013-02-18 01:35:00
7:55 PM,42.8,21.2,42,29.55,10.0,NE,6.9,-,N/A,,Clear,50,2013-02-18 01:55:00
8:15 PM,42.8,19.4,39,29.55,10.0,NE,6.9,-,N/A,,Clear,40,2013-02-18 02:15:00
8:35 PM,42.8,19.4,39,29.55,10.0,ENE,5.8,-,N/A,,Clear,60,2013-02-18 02:35:00
8:55 PM,42.8,19.4,39,29.54,10.0,ENE,6.9,-,N/A,,Clear,60,2013-02-18 02:55:00
9:15 PM,39.2,21.2,49,29.54,10.0,ENE,9.2,-,N/A,,Clear,60,2013-02-18 03:15:00
9:35 PM,39.2,21.2,49,29.53,10.0,ENE,6.9,-,N/A,,Clear,70,2013-02-18 03:35:00
9:55 PM,37.4,21.2,52,29.54,10.0,East,5.8,-,N/A,,Clear,80,2013-02-18 03:55:00
10:15 PM,37.4,24.8,60,29.52,10.0,NE,8.1,-,N/A,,Clear,40,2013-02-18 04:15:00
10:35 PM,39.2,26.6,61,29.51,10.0,North,9.2,-,N/A,,Clear,10,2013-02-18 04:35:00
10:55 PM,37.4,24.8,60,29.53,10.0,SE,6.9,-,N/A,,Clear,130,2013-02-18 04:55:00
11:15 PM,37.4,24.8,60,29.53,10.0,Calm,Calm,-,N/A,,Clear,0,2013-02-18 05:15:00
11:35 PM,44.6,24.8,46,29.58,10.0,NNW,24.2,35.7,N/A,,Clear,340,2013-02-18 05:35:00
11:55 PM,44.6,23.0,43,29.59,10.0,North,20.7,26.5,N/A,,Clear,350,2013-02-18 05:55:00